Weather History for Manhattan, KS

Change the Weather History Date:

Thursday, September 20, 2012

  Actual Average Record
Temperature  
Mean Temperature 60 °F 66 °F  
Max Temperature 74 °F 79 °F 93 °F (2014)
Min Temperature 45 °F 53 °F 37 °F (1999)
Degree Days  
Heating Degree Days 5 3  
Month to date heating degree days 38 24  
Since 1 July heating degree days 38 27  
Cooling Degree Days 0 4  
Month to date cooling degree days 121 125  
Year to date cooling degree days 1760 1308  
Growing Degree Days 9 (Base 50)    
Moisture  
Dew Point 44 °F    
Average Humidity 59    
Maximum Humidity 92    
Minimum Humidity 25    
Precipitation  
Precipitation 0.00 in 0.10 in 1.17 in (1998)
Month to date precipitation 2.41 2.30  
Year to date precipitation 20.08 26.84  
Sea Level Pressure  
Sea Level Pressure 30.01 in    
Wind  
Wind Speed 2 mph (ENE)    
Max Wind Speed 10 mph    
Max Gust Speed 13 mph    
Visibility 10 miles    
Events      
T = Trace of Precipitation, MM = Missing Value Source: NWS Daily Summary

Daily Weather History Graph

Daily Weather History Graph

Search for Another Location

Airport:

Trip Planner

Search our weather history database for the weather conditions in past years. The results will help you decide how hot, cold, wet, or windy it might be!

Date:

Astronomy

Sep. 20, 2012 Rise Set
Actual Time 7:13 AM CDT 7:26 PM CDT
Civil Twilight 6:46 AM CDT 7:52 PM CDT
Nautical Twilight 6:14 AM CDT 8:24 PM CDT
Astronomical Twilight 5:43 AM CDT 8:55 PM CDT
Moon 12:29 PM CDT (9/20) 10:31 PM CDT (9/20)
Length of Visible Light 13h 06m
Length of Day
12h 13m
Waxing Crescent, 27% of the Moon is Illuminated
Sep 20
Waxing Crescent
Sep 22
First Quarter
Sep 29
Full
Oct 8
Last Quarter
Oct 15
New

Hourly Weather History & Observations

Time (CDT) Temp. Dew Point Humidity Pressure Visibility Wind Dir Wind Speed Gust Speed Precip Events Conditions
12:52 AM 60.1 °F 42.1 °F 51% 29.98 in 10.0 mi NNE 5.8 mph - N/A   Clear
1:52 AM 60.1 °F 39.9 °F 47% 29.99 in 10.0 mi Calm Calm - N/A   Clear
2:52 AM 60.1 °F 37.9 °F 44% 30.00 in 10.0 mi NNE 3.5 mph - N/A   Clear
3:52 AM 52.0 °F 43.0 °F 71% 30.01 in 10.0 mi Calm Calm - N/A   Clear
4:52 AM 51.1 °F 42.1 °F 71% 30.02 in 10.0 mi Calm Calm - N/A   Clear
5:52 AM 48.0 °F 43.0 °F 83% 30.02 in 10.0 mi Calm Calm - N/A   Clear
6:52 AM 45.0 °F 42.1 °F 90% 30.03 in 10.0 mi Calm Calm - N/A   Clear
7:52 AM 46.4 °F 42.8 °F 87% 30.05 in 10.0 mi Calm Calm - N/A   Clear
8:52 AM 53.1 °F 48.0 °F 83% 30.05 in 10.0 mi Calm Calm - N/A   Clear
9:52 AM 61.0 °F 46.9 °F 60% 30.06 in 10.0 mi Calm Calm - N/A   Clear
10:52 AM 66.2 °F 44.6 °F 46% 30.08 in 10.0 mi Calm Calm - N/A   Clear
11:52 AM 70.0 °F 43.0 °F 38% 30.07 in 10.0 mi Calm Calm - N/A   Clear
12:52 PM 72.0 °F 34.0 °F 25% 30.07 in 10.0 mi Calm Calm - N/A   Clear
1:52 PM 73.0 °F 43.0 °F 34% 30.04 in 10.0 mi ENE 9.2 mph - N/A   Clear
2:52 PM 73.9 °F 45.0 °F 35% 30.02 in 10.0 mi East 5.8 mph - N/A   Clear
3:52 PM 73.0 °F 43.0 °F 34% 30.01 in 10.0 mi ENE 5.8 mph - N/A   Clear
4:52 PM 73.0 °F 44.1 °F 35% 29.99 in 10.0 mi ESE 3.5 mph - N/A   Clear
5:52 PM 71.1 °F 48.0 °F 44% 29.99 in 10.0 mi ENE 4.6 mph - N/A   Clear
6:52 PM 68.0 °F 52.0 °F 56% 29.98 in 10.0 mi Calm Calm - N/A   Clear
7:52 PM 61.0 °F 51.1 °F 70% 29.98 in 10.0 mi Calm Calm - N/A   Clear
8:52 PM 62.1 °F 50.0 °F 65% 29.99 in 10.0 mi Calm Calm - N/A   Clear
9:52 PM 59.0 °F 48.9 °F 69% 29.98 in 10.0 mi NNE 3.5 mph - N/A   Clear
10:52 PM 59.0 °F 48.0 °F 67% 29.95 in 10.0 mi Calm Calm - N/A   Clear
11:52 PM 60.1 °F 45.0 °F 57% 29.94 in 10.0 mi Calm Calm - N/A   Clear